TimeCDT,TemperatureF,Dew PointF,Humidity,Sea Level PressureIn,VisibilityMPH,Wind Direction,Wind SpeedMPH,Gust SpeedMPH,PrecipitationIn,Events,Conditions,WindDirDegrees,DateUTC
12:52 AM,34.0,30.0,85,29.75,10.0,East,9.2,-,N/A,,Overcast,90,2013-04-06 05:52:00
1:52 AM,34.0,30.0,85,29.73,10.0,East,6.9,-,N/A,,Overcast,90,2013-04-06 06:52:00
2:52 AM,33.1,30.0,89,29.70,9.0,East,6.9,-,N/A,,Scattered Clouds,80,2013-04-06 07:52:00
3:52 AM,30.0,28.9,96,29.70,7.0,ENE,5.8,-,N/A,,Clear,60,2013-04-06 08:52:00
4:52 AM,27.0,27.0,100,29.71,5.0,East,4.6,-,N/A,,Clear,80,2013-04-06 09:52:00
5:38 AM,28.9,27.0,92,29.66,3.0,East,4.6,-,N/A,,Mostly Cloudy,80,2013-04-06 10:38:00
5:47 AM,28.4,28.4,100,29.66,3.0,East,3.5,-,N/A,,Mostly Cloudy,80,2013-04-06 10:47:00
5:52 AM,28.9,28.0,96,29.70,3.0,East,3.5,-,N/A,,Mostly Cloudy,90,2013-04-06 10:52:00
5:57 AM,28.9,28.0,96,29.66,2.5,East,3.5,-,N/A,,Overcast,90,2013-04-06 10:57:00
6:11 AM,28.9,28.9,100,29.66,1.0,East,3.5,-,N/A,,Overcast,90,2013-04-06 11:11:00
6:14 AM,28.9,28.9,100,29.66,0.8,East,4.6,-,N/A,,Mist,90,2013-04-06 11:14:00
6:24 AM,28.9,28.9,100,29.66,0.5,East,3.5,-,N/A,Fog,Light Freezing Fog,90,2013-04-06 11:24:00
6:32 AM,28.9,28.9,100,29.66,0.2,Calm,Calm,-,N/A,Fog,Light Freezing Fog,0,2013-04-06 11:32:00
6:52 AM,28.0,28.0,100,29.70,0.2,Calm,Calm,-,N/A,Fog,Light Freezing Fog,0,2013-04-06 11:52:00
7:21 AM,28.0,27.0,96,29.67,0.2,Calm,Calm,-,N/A,Fog,Light Freezing Fog,0,2013-04-06 12:21:00
7:29 AM,28.0,27.0,96,29.66,0.2,Calm,Calm,-,N/A,Fog,Light Freezing Fog,0,2013-04-06 12:29:00
7:52 AM,28.0,28.0,100,29.71,0.2,Calm,Calm,-,N/A,Fog,Light Freezing Fog,0,2013-04-06 12:52:00
8:23 AM,28.0,28.0,100,29.67,0.2,Calm,Calm,-,N/A,Fog,Light Freezing Fog,0,2013-04-06 13:23:00
8:39 AM,28.9,28.9,100,29.68,0.2,Calm,Calm,-,N/A,Fog,Light Freezing Fog,0,2013-04-06 13:39:00
8:52 AM,28.9,28.9,100,29.73,0.2,Calm,Calm,-,N/A,Fog,Light Freezing Fog,0,2013-04-06 13:52:00
9:43 AM,30.9,30.9,100,29.68,0.5,Calm,Calm,-,N/A,Fog,Light Freezing Fog,0,2013-04-06 14:43:00
9:50 AM,32.0,30.2,93,29.68,1.0,Calm,Calm,-,N/A,,Overcast,0,2013-04-06 14:50:00
9:52 AM,32.0,32.0,100,29.73,1.0,WSW,3.5,-,N/A,,Overcast,250,2013-04-06 14:52:00
10:06 AM,32.0,32.0,100,29.68,3.0,WNW,4.6,-,N/A,,Mostly Cloudy,290,2013-04-06 15:06:00
10:20 AM,35.1,33.1,92,29.68,6.0,NNW,5.8,-,N/A,,Scattered Clouds,330,2013-04-06 15:20:00
10:52 AM,44.1,34.0,68,29.74,10.0,NNW,12.7,-,N/A,,Mostly Cloudy,340,2013-04-06 15:52:00
11:52 AM,48.0,33.1,56,29.75,10.0,NNW,16.1,-,N/A,,Clear,330,2013-04-06 16:52:00
12:52 PM,46.0,30.9,56,29.78,10.0,NNW,17.3,31.1,N/A,,Clear,340,2013-04-06 17:52:00
1:52 PM,42.1,30.9,65,29.80,10.0,NNW,17.3,-,N/A,,Scattered Clouds,340,2013-04-06 18:52:00
2:01 PM,41.0,30.9,67,29.76,10.0,NNW,17.3,24.2,N/A,,Mostly Cloudy,330,2013-04-06 19:01:00
2:52 PM,39.0,30.9,73,29.82,10.0,NW,10.4,-,N/A,,Overcast,320,2013-04-06 19:52:00
3:52 PM,44.1,32.0,63,29.82,10.0,North,12.7,23.0,N/A,,Mostly Cloudy,350,2013-04-06 20:52:00
4:52 PM,43.0,30.9,62,29.83,10.0,NNW,17.3,24.2,N/A,,Overcast,330,2013-04-06 21:52:00
5:52 PM,41.0,30.9,67,29.85,10.0,NNW,11.5,-,N/A,,Overcast,330,2013-04-06 22:52:00
6:52 PM,39.9,30.9,70,29.86,10.0,NNE,11.5,-,N/A,,Overcast,20,2013-04-06 23:52:00
7:52 PM,37.9,30.0,73,29.89,10.0,North,9.2,-,N/A,,Overcast,10,2013-04-07 00:52:00
8:52 PM,36.0,30.0,79,29.90,10.0,NNE,6.9,-,N/A,,Overcast,20,2013-04-07 01:52:00
9:52 PM,35.1,28.9,78,29.91,10.0,NE,6.9,-,N/A,,Overcast,50,2013-04-07 02:52:00
10:52 PM,34.0,28.9,82,29.91,10.0,NE,6.9,-,N/A,,Overcast,50,2013-04-07 03:52:00
11:52 PM,33.1,28.9,85,29.90,10.0,ENE,5.8,-,N/A,,Overcast,60,2013-04-07 04:52:00